[[{"header":{"parameterUnit":"m.s-1","parameterCategory":1,"la1":30.2991,"la2":30.254,"lo1":-89.0895,"lo2":-89.0444,"dy":0.0017,"dx":0.0017,"nx":28,"ny":28,"refTime":"2024-05-22T21:00:00:Z","depth":0,"parameterNumber":2,"parameterNumberName":"U-component_of_WINDS"},"data":[0,0,0,0,0,0,0,0,0,0,0,0,0,0,0,0,0,0,0,0,0,0,0,0,0,0,0,0,0,0,0,0,0,0,0,0,0,0,0,0,0,0,0,0,0,0,0,0,0,0,0,0,0,0,0,0,0,0,-2.4089,-2.4089,0,-2.4134,-2.4134,-2.4135,-2.411,-2.4109,-2.4107,-2.4106,-2.4152,-2.4155,-2.4157,0,0,0,0,0,0,0,0,0,0,0,0,0,-2.3981,-2.3983,-2.4089,-2.4089,-2.409,-2.4134,-2.4134,-2.4135,-2.411,-2.4109,-2.4107,-2.4106,-2.4152,-2.4154,-2.4157,0,0,0,0,0,0,0,0,0,0,0,0,0,-2.4027,-2.3984,-2.4089,-2.4083,-2.4083,-2.4133,-2.4134,-2.4135,-2.411,-2.4109,-2.4107,-2.4105,-2.4151,-2.4154,-2.4158,-2.4217,0,0,-2.4169,-2.417,0,0,0,0,0,0,0,0,-2.4025,-2.4031,-2.4083,-2.4083,-2.4083,-2.4114,-2.4113,-2.4162,-2.4111,-2.41,-2.4106,-2.4104,-2.4141,-2.4145,-2.4158,-2.4219,-2.4221,-2.4169,-2.4171,-2.4173,-2.4174,0,0,0,0,0,0,0,-2.4021,-2.4029,-2.4106,-2.4084,-2.4084,-2.4078,-2.4082,-2.4122,-2.413,-2.4101,-2.4099,-2.4105,-2.4141,-2.4155,-2.4159,-2.4222,-2.4169,-2.4172,-2.4174,-2.4176,-2.4332,-2.4334,0,0,0,0,0,0,-2.4019,-2.4027,-2.4105,-2.4108,-2.4049,-2.4081,-2.4086,-2.4106,-2.413,-2.4132,-2.4106,-2.4103,-2.4149,-2.4155,-2.416,-2.423,-2.4173,-2.4176,-2.4178,-2.433,-2.4332,-2.4335,0,0,0,0,0,0,-2.4016,-2.4026,-2.4103,-2.4067,-2.4076,-2.4085,-2.4108,-2.4108,-2.4122,-2.4134,-2.4135,-2.4119,-2.4148,-2.4155,-2.4203,-2.4231,-2.4178,-2.4181,-2.4328,-2.4331,-2.4334,-2.437,0,0,0,0,0,0,-2.4013,-2.4025,-2.4048,-2.4067,-2.4078,-2.4145,-2.4109,-2.411,-2.4128,-2.4125,-2.4146,-2.4148,-2.4147,-2.4197,-2.4206,-2.4235,-2.4184,-2.4325,-2.4329,-2.4333,-2.4367,-2.4374,-2.4381,0,0,0,0,0,-2.401,-2.4057,-2.4049,-2.4059,-2.4107,-2.4147,-2.4153,-2.4151,-2.413,-2.4153,-2.4161,-2.4147,-2.4227,-2.4203,-2.4212,-2.4243,-2.4323,-2.4328,-2.4332,-2.4363,-2.4373,-2.4381,0,0,0,0,0,0,-2.4041,-2.4059,-2.4051,-2.4106,-2.4125,-2.4142,-2.4171,-2.4161,-2.4186,-2.4182,-2.4179,-2.4184,-2.4233,-2.4243,-2.4215,-2.4301,-2.4272,-2.4279,-2.4292,-2.4301,-2.4308,-2.4304,-2.4187,0,0,0,0,0,-2.4054,-2.4085,-2.4099,-2.4146,-2.4156,-2.4162,-2.4179,-2.4176,-2.4196,-2.4204,-2.4215,-2.4235,-2.4264,-2.4283,-2.4311,-2.4368,-2.4372,-2.4394,-2.4401,-2.4407,-2.4412,-2.4442,-2.4452,-2.435,-2.435,-2.4349,0,0,-2.4081,-2.4095,-2.4115,-2.4153,-2.4167,-2.4199,-2.4169,-2.4204,-2.4227,-2.4209,-2.4254,-2.4263,-2.4285,-2.4337,-2.436,-2.4346,-2.4442,-2.4413,-2.4417,-2.442,-2.4448,-2.4457,-2.4466,-2.4353,-2.4352,-2.4352,0,0,-2.4148,-2.4162,-2.4202,-2.4217,-2.4238,-2.4242,-2.4252,-2.4271,-2.4276,-2.4321,-2.4307,-2.4335,-2.4386,-2.4402,-2.4416,-2.4488,-2.4476,-2.4497,-2.4534,-2.4563,-2.4571,-2.4578,-2.4602,-2.4611,-2.4503,-2.4503,-2.4503,0,-2.4179,-2.4226,-2.4224,-2.4259,-2.4276,-2.4261,-2.4301,-2.4316,-2.4346,-2.4357,-2.4341,-2.4404,-2.4418,-2.4473,-2.449,-2.4503,-2.4513,-2.4494,-2.457,-2.4577,-2.4584,-2.4607,-2.4616,-2.4505,-2.4505,-2.4505,-2.4504,0,-2.4263,-2.4296,-2.4326,-2.4355,-2.4375,-2.4413,-2.4416,-2.4436,-2.4431,-2.4437,-2.4482,-2.4498,-2.4528,-2.4541,-2.4537,-2.4595,-2.4586,-2.457,-2.4541,-2.4596,-2.4617,-2.4626,-2.4508,-2.4508,-2.4507,-2.4506,0,0,-2.435,-2.4376,-2.4387,-2.4399,-2.4422,-2.4448,-2.4485,-2.4514,-2.4531,-2.4553,-2.4583,-2.4626,-2.4611,-2.4628,-2.4626,-2.4651,-2.4705,-2.4632,-2.4633,-2.4644,-2.4769,-2.478,-2.4791,-2.4698,-2.47,-2.4701,-2.4767,0,-2.4417,-2.4481,-2.4479,-2.4539,-2.4569,-2.4555,-2.4587,-2.4604,-2.461,-2.4636,-2.4642,-2.4672,-2.4651,-2.4661,-2.4686,-2.4694,-2.473,-2.4689,-2.4726,-2.4727,-2.4719,-2.4802,-2.4814,-2.4875,-2.4776,-2.4777,-2.4778,0,-2.4503,-2.4526,-2.4589,-2.4606,-2.4619,-2.4648,-2.4674,-2.4699,-2.4718,-2.4721,-2.4739,-2.4732,-2.4769,-2.474,-2.4791,-2.4762,-2.4777,-2.4783,-2.4786,-2.4788,-2.4755,-2.4806,-2.4895,-2.4904,-2.4792,-2.4791,-2.479,0,-2.4559,-2.4606,-2.4649,-2.466,-2.4682,-2.4702,-2.4712,-2.473,-2.4747,-2.477,-2.4781,-2.4808,-2.4823,-2.4844,-2.4845,-2.4824,-2.4896,-2.4867,-2.4898,-2.4898,-2.4913,-2.4912,-2.5005,-2.4925,-2.4925,-2.4924,-2.4924,0,-2.4633,-2.4671,-2.4674,-2.47,-2.4743,-2.4741,-2.4783,-2.4791,-2.4806,-2.4834,-2.4824,-2.485,-2.485,-2.4876,-2.4877,-2.4918,-2.4925,-2.4928,-2.4927,-2.4928,-2.4928,-2.4937,-2.4932,-2.4927,-2.4926,-2.4926,-2.4925,0,-2.4702,-2.4705,-2.4751,-2.4768,-2.4773,-2.4803,-2.4817,-2.4842,-2.4847,-2.4882,-2.489,-2.4897,-2.4928,-2.4931,-2.4966,-2.4967,-2.5016,-2.5012,-2.501,-2.5009,-2.5039,-2.5036,-2.5141,-2.5154,-2.5066,-2.5067,-2.5068,0,-2.4748,-2.4777,-2.4797,-2.4814,-2.4825,-2.4854,-2.4871,-2.487,-2.4889,-2.4912,-2.4934,-2.4964,-2.4987,-2.5037,-2.5045,-2.5072,-2.5067,-2.5102,-2.5071,-2.5071,-2.5067,-2.5064,-2.5067,-2.5108,-2.5109,-2.511,-2.511,0,-2.483,-2.483,-2.4855,-2.4881,-2.4902,-2.4923,-2.4942,-2.4957,-2.4958,-2.4979,-2.501,-2.5028,-2.5064,-2.5093,-2.512,-2.513,-2.512,-2.512,-2.5129,-2.5129,-2.5126,-2.5127,-2.5025,-2.5118,-2.5117,-2.5116,-2.5116,-2.5116,-2.4889,-2.4913,-2.4931,-2.4959,-2.4973,-2.4991,-2.5015,-2.5022,-2.5048,-2.5077,-2.5074,-2.5108,-2.5126,-2.516,-2.5173,-2.5199,-2.5187,-2.52,-2.5203,-2.5206,-2.5208,-2.5123,-2.5204,-2.5204,-2.5203,-2.5203,-2.5203,0,-2.4969,-2.4979,-2.5005,-2.5032,-2.5054,-2.5043,-2.5063,-2.5082,-2.5112,-2.5129,-2.5152,-2.5187,-2.5216,-2.5226,-2.5253,-2.5272,-2.5268,-2.5279,-2.5277,-2.528,-2.5218,-2.5207,-2.5282,-2.5282,-2.5282,-2.5282,-2.5282,-2.5282,-2.5014,-2.5054,-2.5056,-2.5104,-2.5114,-2.5147,-2.5159,-2.5175,-2.5189,-2.5228,-2.5251,-2.5258,-2.5272,-2.53,-2.5325,-2.5327,-2.5338,-2.535,-2.5351,-2.5292,-2.5284,-2.5277,-2.5267,-2.5353,-2.5353,-2.541,-2.5411,-2.5411]},{"header":{"parameterUnit":"m.s-1","parameterCategory":1,"la1":30.2991,"la2":30.254,"lo1":-89.0895,"lo2":-89.0444,"dy":0.0017,"dx":0.0017,"nx":28,"ny":28,"refTime":"2024-05-22T21:00:00:Z","depth":0,"parameterNumber":3,"parameterNumberName":"V-component_of_WINDS"},"data":[0,0,0,0,0,0,0,0,0,0,0,0,0,0,0,0,0,0,0,0,0,0,0,0,0,0,0,0,0,0,0,0,0,0,0,0,0,0,0,0,0,0,0,0,0,0,0,0,0,0,0,0,0,0,0,0,0,0,3.6238,3.6238,0,3.6252,3.6252,3.6252,3.6178,3.6176,3.6174,3.6172,3.6185,3.6187,3.619,0,0,0,0,0,0,0,0,0,0,0,0,0,3.6146,3.6148,3.6238,3.6238,3.6238,3.6252,3.6252,3.6252,3.6179,3.6176,3.6173,3.6171,3.6184,3.6187,3.619,0,0,0,0,0,0,0,0,0,0,0,0,0,3.6176,3.6149,3.6238,3.6203,3.62,3.6252,3.6252,3.6252,3.6179,3.6176,3.6173,3.617,3.6183,3.6187,3.619,3.6275,0,0,3.6201,3.6202,0,0,0,0,0,0,0,0,3.6174,3.6179,3.6208,3.6206,3.6202,3.621,3.6224,3.626,3.618,3.6187,3.6172,3.6168,3.6196,3.6198,3.6208,3.6276,3.6277,3.6201,3.6203,3.6205,3.6206,0,0,0,0,0,0,0,3.6172,3.6178,3.6243,3.6209,3.6205,3.6186,3.6187,3.6231,3.6209,3.6186,3.6181,3.6184,3.6194,3.6205,3.6207,3.6277,3.6201,3.6204,3.6206,3.6208,3.6414,3.6417,0,0,0,0,0,0,3.6175,3.6177,3.6243,3.6244,3.618,3.6191,3.6191,3.6211,3.6208,3.6205,3.6186,3.618,3.62,3.6203,3.6208,3.6305,3.6205,3.6208,3.621,3.6411,3.6415,3.6419,0,0,0,0,0,0,3.6173,3.6182,3.6242,3.6209,3.6215,3.6196,3.6218,3.6213,3.6223,3.6209,3.6204,3.6201,3.6198,3.6203,3.6259,3.6305,3.621,3.6213,3.6407,3.6412,3.6417,3.6503,0,0,0,0,0,0,3.6171,3.6181,3.6214,3.621,3.6217,3.6294,3.6221,3.6215,3.623,3.6222,3.6221,3.6218,3.6196,3.6254,3.6262,3.6308,3.6215,3.6402,3.6409,3.6415,3.6496,3.6511,3.6523,0,0,0,0,0,3.6168,3.6238,3.6216,3.6224,3.6258,3.6297,3.6301,3.6273,3.6234,3.6266,3.6256,3.6218,3.6299,3.626,3.6269,3.6317,3.6399,3.6407,3.6415,3.649,3.6508,3.6523,0,0,0,0,0,0,3.6247,3.6236,3.6212,3.6283,3.6291,3.6284,3.6324,3.6293,3.6313,3.6304,3.6269,3.627,3.6332,3.633,3.6287,3.6398,3.6342,3.6352,3.6397,3.6413,3.6427,3.6425,3.6218,0,0,0,0,0,3.6272,3.6306,3.6295,3.6358,3.6364,3.6343,3.6359,3.6338,3.6345,3.6348,3.6342,3.635,3.6377,3.6396,3.642,3.6496,3.6494,3.6533,3.6547,3.6558,3.6566,3.6605,3.6622,3.6444,3.6444,3.6443,0,0,3.6326,3.6324,3.6347,3.6374,3.6378,3.6412,3.6347,3.6386,3.6411,3.6354,3.6405,3.6402,3.6409,3.6475,3.6504,3.6476,3.6615,3.6568,3.6577,3.6579,3.6614,3.6631,3.6646,3.6449,3.6448,3.6447,0,0,3.6439,3.6443,3.6495,3.65,3.6507,3.6493,3.6506,3.6504,3.6499,3.6551,3.6509,3.6538,3.6586,3.6591,3.6601,3.6718,3.6683,3.6727,3.6796,3.6834,3.6848,3.6861,3.69,3.6915,3.6735,3.6736,3.6736,0,3.6504,3.6554,3.6525,3.6567,3.658,3.6531,3.6583,3.659,3.6604,3.6613,3.6582,3.664,3.6641,3.6707,3.6736,3.6746,3.6758,3.6725,3.6849,3.6861,3.6872,3.6909,3.6925,3.6741,3.674,3.6739,3.6739,0,3.6633,3.6668,3.671,3.6725,3.6743,3.679,3.6767,3.6789,3.6766,3.6755,3.6808,3.6808,3.6831,3.6846,3.6824,3.6909,3.6891,3.6855,3.6797,3.6894,3.6929,3.6943,3.6748,3.6746,3.6745,3.6743,0,0,3.6794,3.6794,3.6809,3.6815,3.6819,3.6846,3.6891,3.6913,3.6931,3.6944,3.6979,3.7021,3.6988,3.6998,3.6977,3.7011,3.7101,3.6971,3.697,3.6993,3.7193,3.7218,3.7236,3.708,3.7082,3.7084,3.7192,0,3.6904,3.698,3.6955,3.7032,3.7064,3.7018,3.7057,3.7064,3.7055,3.7081,3.7071,3.71,3.7055,3.7061,3.7093,3.7084,3.7141,3.7076,3.7111,3.7112,3.7108,3.7254,3.7281,3.7382,3.7205,3.7208,3.7209,0,3.7041,3.7059,3.7139,3.7137,3.7149,3.7185,3.7203,3.7228,3.7235,3.7226,3.7239,3.721,3.7253,3.7198,3.7256,3.7213,3.7226,3.7224,3.7227,3.7227,3.7165,3.7256,3.7414,3.7428,3.7231,3.7229,3.7227,0,3.7149,3.7193,3.7245,3.7252,3.7252,3.7278,3.7279,3.7282,3.7297,3.7314,3.7323,3.7344,3.7355,3.7372,3.735,3.7312,3.7411,3.7354,3.7404,3.7404,3.7424,3.7423,3.7584,3.7437,3.7437,3.7437,3.7436,0,3.7272,3.7322,3.7293,3.7326,3.738,3.7352,3.7407,3.7403,3.7407,3.7437,3.74,3.7429,3.7399,3.7425,3.7408,3.7458,3.7464,3.7457,3.7452,3.7459,3.746,3.7466,3.7457,3.7441,3.744,3.7439,3.7438,0,3.74,3.7383,3.7437,3.7433,3.7433,3.7474,3.747,3.7499,3.7489,3.7528,3.7535,3.7518,3.7547,3.7528,3.7557,3.7546,3.761,3.7596,3.7608,3.7603,3.7653,3.7648,3.7822,3.7843,3.7684,3.7686,3.7687,0,3.7479,3.7516,3.7516,3.7534,3.7537,3.7567,3.7582,3.7556,3.7573,3.7583,3.7611,3.7637,3.7656,3.7705,3.7695,3.7717,3.7702,3.7761,3.7705,3.7711,3.77,3.7697,3.77,3.7772,3.7774,3.7775,3.7777,0,3.7619,3.7609,3.7632,3.7653,3.7672,3.7687,3.7699,3.7715,3.7689,3.771,3.774,3.7755,3.7785,3.781,3.7829,3.7829,3.7798,3.7795,3.7807,3.7814,3.7818,3.7815,3.7637,3.779,3.7789,3.7788,3.7787,3.7787,3.7723,3.7754,3.7759,3.7786,3.7792,3.7804,3.7831,3.7824,3.7848,3.787,3.7854,3.7888,3.7894,3.7915,3.792,3.7946,3.7922,3.794,3.7944,3.7948,3.7955,3.7817,3.795,3.7949,3.7949,3.7948,3.7948,0,3.786,3.7861,3.7886,3.7904,3.7925,3.7896,3.7907,3.7926,3.7957,3.7965,3.7985,3.8019,3.8044,3.8036,3.8058,3.8081,3.8067,3.8087,3.8084,3.8084,3.7976,3.7962,3.8098,3.8098,3.8098,3.8098,3.8098,3.8098,3.7934,3.7983,3.7974,3.8026,3.8027,3.806,3.8069,3.808,3.8086,3.8125,3.8146,3.8141,3.8142,3.8164,3.8186,3.8183,3.8192,3.8217,3.8209,3.8107,3.8092,3.8078,3.8065,3.822,3.822,3.8314,3.8315,3.8316]}]]